Location: Elstree
(51.6403°N, 0.2969°W)
Time: 02:15:22
(UTC+00:00)

Envisat - Pass Details

Date: 05 December 2022
Orbit: 763 x 765 km, 98.2° (Epoch: 08 February)

Event Time Altitude Azimuth Distance (km) Brightness Sun altitude
Rises 04:42:41 0° 13° (NNE) 3,248 6.4 -27.9°
Reaches altitude 10° 04:45:00 10° 11° (N) 2,317 5.6 -27.6°
Enters shadow 04:47:57 35° 4° (N) 1,222 4.0 -27.1°
